[[{"header":{"parameterUnit":"m.s-1","parameterCategory":1,"la1":30.2991,"la2":30.254,"lo1":-89.0895,"lo2":-89.0444,"dy":0.0017,"dx":0.0017,"nx":28,"ny":28,"refTime":"2024-12-11T03:00:00:Z","depth":0,"parameterNumber":2,"parameterNumberName":"U-component_of_WINDS"},"data":[0,0,0,0,0,0,0,0,0,0,0,0,0,0,0,0,0,0,0,0,0,0,0,0,0,0,0,0,0,0,0,0,0,0,0,0,0,0,0,0,0,0,0,0,0,0,0,0,0,0,0,0,0,0,0,0,0,0,-1.0514,-1.0515,0,-1.057,-1.057,-1.0571,-1.0477,-1.0474,-1.0471,-1.0468,-1.0528,-1.0532,-1.0537,0,0,0,0,0,0,0,0,0,0,0,0,0,-1.033,-1.0334,-1.0514,-1.0515,-1.0516,-1.057,-1.057,-1.0571,-1.0478,-1.0474,-1.047,-1.0466,-1.0526,-1.0532,-1.0537,0,0,0,0,0,0,0,0,0,0,0,0,0,-1.04,-1.0335,-1.0514,-1.0475,-1.0472,-1.0569,-1.057,-1.0571,-1.0478,-1.0474,-1.0469,-1.0464,-1.0525,-1.0531,-1.0538,-1.0676,0,0,-1.0559,-1.0562,0,0,0,0,0,0,0,0,-1.0396,-1.0407,-1.048,-1.0478,-1.0475,-1.0511,-1.0527,-1.0607,-1.048,-1.0476,-1.0468,-1.0462,-1.0527,-1.0533,-1.0554,-1.0679,-1.0682,-1.056,-1.0564,-1.0567,-1.0569,0,0,0,0,0,0,0,-1.0391,-1.0404,-1.0536,-1.0482,-1.0478,-1.0456,-1.0461,-1.0542,-1.0528,-1.0476,-1.047,-1.0477,-1.0524,-1.0548,-1.0555,-1.0683,-1.056,-1.0566,-1.057,-1.0573,-1.0924,-1.0929,0,0,0,0,0,0,-1.0391,-1.0401,-1.0534,-1.0538,-1.0423,-1.0463,-1.0468,-1.0505,-1.0527,-1.0525,-1.0481,-1.0473,-1.0538,-1.0547,-1.0557,-1.0721,-1.0567,-1.0573,-1.0577,-1.0919,-1.0926,-1.0931,0,0,0,0,0,0,-1.0387,-1.0404,-1.0532,-1.0467,-1.0482,-1.0471,-1.0513,-1.0508,-1.0532,-1.053,-1.0528,-1.0508,-1.0535,-1.0547,-1.0647,-1.0722,-1.0576,-1.0583,-1.0913,-1.0921,-1.0928,-1.1051,0,0,0,0,0,0,-1.0383,-1.0403,-1.0455,-1.0469,-1.0486,-1.0622,-1.0517,-1.0513,-1.0543,-1.0533,-1.0554,-1.0553,-1.0532,-1.0637,-1.0654,-1.0729,-1.0588,-1.0906,-1.0917,-1.0926,-1.1041,-1.1062,-1.1081,0,0,0,0,0,-1.0376,-1.0488,-1.0458,-1.0475,-1.0551,-1.0626,-1.0636,-1.0608,-1.055,-1.0603,-1.0601,-1.0553,-1.071,-1.0648,-1.0666,-1.0744,-1.0902,-1.0914,-1.0925,-1.1032,-1.1058,-1.108,0,0,0,0,0,0,-1.0485,-1.049,-1.0457,-1.0576,-1.0602,-1.061,-1.0677,-1.0637,-1.068,-1.0669,-1.0632,-1.0638,-1.0747,-1.0755,-1.0686,-1.0879,-1.0796,-1.0812,-1.0871,-1.0896,-1.0916,-1.0914,-1.0594,0,0,0,0,0,-1.0523,-1.0583,-1.0583,-1.0689,-1.0703,-1.0688,-1.072,-1.0695,-1.0721,-1.0732,-1.0738,-1.0765,-1.082,-1.0858,-1.0909,-1.1039,-1.1044,-1.1102,-1.1122,-1.1139,-1.1154,-1.1225,-1.1251,-1.097,-1.097,-1.097,0,0,-1.0602,-1.0612,-1.0652,-1.0711,-1.0728,-1.0792,-1.0698,-1.077,-1.0817,-1.0743,-1.0838,-1.0843,-1.0871,-1.0988,-1.1039,-1.0998,-1.1232,-1.1154,-1.1167,-1.1173,-1.124,-1.1266,-1.129,-1.0978,-1.0976,-1.0975,0,0,-1.078,-1.0792,-1.0882,-1.09,-1.0926,-1.0915,-1.0936,-1.0951,-1.0951,-1.1046,-1.0991,-1.1047,-1.1143,-1.1165,-1.1189,-1.1373,-1.1331,-1.139,-1.1498,-1.1567,-1.1589,-1.1609,-1.1677,-1.1701,-1.1405,-1.1405,-1.1405,0,-1.0876,-1.097,-1.0934,-1.101,-1.1038,-1.097,-1.1062,-1.1081,-1.1123,-1.1145,-1.1097,-1.1216,-1.1229,-1.1351,-1.1396,-1.1416,-1.1441,-1.139,-1.1589,-1.1608,-1.1626,-1.169,-1.1715,-1.1412,-1.1412,-1.1411,-1.141,0,-1.1087,-1.1153,-1.1222,-1.1263,-1.1299,-1.1382,-1.136,-1.14,-1.1371,-1.1365,-1.1463,-1.1476,-1.1529,-1.1555,-1.1529,-1.1673,-1.1647,-1.1594,-1.1511,-1.1661,-1.1721,-1.1745,-1.1423,-1.142,-1.1418,-1.1416,0,0,-1.1339,-1.1357,-1.1384,-1.1402,-1.1424,-1.1475,-1.1554,-1.1605,-1.1641,-1.1671,-1.1738,-1.182,-1.1771,-1.1798,-1.1773,-1.1834,-1.1981,-1.1774,-1.1774,-1.1814,-1.2143,-1.2185,-1.2214,-1.1951,-1.1955,-1.1959,-1.2141,0,-1.1518,-1.1656,-1.1625,-1.1761,-1.1822,-1.1758,-1.1827,-1.1849,-1.1844,-1.1896,-1.189,-1.195,-1.188,-1.1896,-1.1953,-1.1951,-1.2047,-1.1937,-1.2015,-1.2019,-1.2014,-1.2245,-1.2289,-1.2461,-1.2164,-1.2168,-1.2171,0,-1.1746,-1.1784,-1.1926,-1.1938,-1.1963,-1.2026,-1.207,-1.2119,-1.2142,-1.2134,-1.2164,-1.2126,-1.2206,-1.2118,-1.2229,-1.2155,-1.2184,-1.2188,-1.2194,-1.2203,-1.2107,-1.2264,-1.2515,-1.2542,-1.2207,-1.2204,-1.2201,0,-1.192,-1.2006,-1.2102,-1.2119,-1.2135,-1.2181,-1.219,-1.2208,-1.224,-1.2277,-1.2298,-1.2344,-1.2371,-1.2408,-1.2385,-1.2323,-1.25,-1.241,-1.2498,-1.2499,-1.2542,-1.254,-1.2805,-1.2555,-1.2554,-1.2554,-1.2553,0,-1.2125,-1.2216,-1.218,-1.224,-1.2339,-1.2302,-1.2401,-1.2402,-1.2418,-1.2478,-1.2423,-1.2481,-1.2444,-1.2498,-1.248,-1.2575,-1.2587,-1.2584,-1.2579,-1.2591,-1.2592,-1.2613,-1.2602,-1.2561,-1.2559,-1.2558,-1.2557,0,-1.2338,-1.2317,-1.2418,-1.2424,-1.2427,-1.2501,-1.2506,-1.2562,-1.2551,-1.2627,-1.2643,-1.2628,-1.2689,-1.2667,-1.2733,-1.272,-1.2842,-1.282,-1.2835,-1.2831,-1.2921,-1.2914,-1.3212,-1.325,-1.2972,-1.2975,-1.2977,0,-1.2472,-1.254,-1.2552,-1.2588,-1.26,-1.2658,-1.269,-1.2655,-1.269,-1.272,-1.2773,-1.2828,-1.2872,-1.2972,-1.2967,-1.3017,-1.2997,-1.3098,-1.3005,-1.3015,-1.3002,-1.3,-1.3007,-1.3118,-1.3121,-1.3124,-1.3126,0,-1.2714,-1.27,-1.2748,-1.2792,-1.2831,-1.2865,-1.2893,-1.2926,-1.2892,-1.2935,-1.2996,-1.3029,-1.3094,-1.3151,-1.3195,-1.3204,-1.3161,-1.3154,-1.3178,-1.3193,-1.3201,-1.3201,-1.289,-1.3149,-1.3147,-1.3145,-1.3144,-1.3143,-1.2894,-1.2951,-1.2969,-1.3024,-1.3041,-1.3069,-1.3122,-1.3117,-1.3167,-1.3217,-1.3193,-1.3264,-1.3284,-1.3338,-1.3354,-1.3409,-1.337,-1.3404,-1.3413,-1.3423,-1.3436,-1.3188,-1.3416,-1.3416,-1.3415,-1.3414,-1.3414,0,-1.3135,-1.3143,-1.3193,-1.3234,-1.3278,-1.3229,-1.3258,-1.3298,-1.3361,-1.3383,-1.3425,-1.3496,-1.3549,-1.3548,-1.3598,-1.3643,-1.3624,-1.3657,-1.3656,-1.3659,-1.3466,-1.3442,-1.3672,-1.3671,-1.3671,-1.3671,-1.3671,-1.3671,-1.3266,-1.3362,-1.3349,-1.3453,-1.3459,-1.3528,-1.3548,-1.3574,-1.3591,-1.3671,-1.3715,-1.3713,-1.3726,-1.3776,-1.3823,-1.3821,-1.3844,-1.3885,-1.3877,-1.3698,-1.3672,-1.3648,-1.3626,-1.389,-1.389,-1.4065,-1.4067,-1.4068]},{"header":{"parameterUnit":"m.s-1","parameterCategory":1,"la1":30.2991,"la2":30.254,"lo1":-89.0895,"lo2":-89.0444,"dy":0.0017,"dx":0.0017,"nx":28,"ny":28,"refTime":"2024-12-11T03:00:00:Z","depth":0,"parameterNumber":3,"parameterNumberName":"V-component_of_WINDS"},"data":[0,0,0,0,0,0,0,0,0,0,0,0,0,0,0,0,0,0,0,0,0,0,0,0,0,0,0,0,0,0,0,0,0,0,0,0,0,0,0,0,0,0,0,0,0,0,0,0,0,0,0,0,0,0,0,0,0,0,-4.3755,-4.3756,0,-4.3882,-4.3883,-4.3885,-4.3803,-4.3799,-4.3795,-4.3792,-4.3919,-4.3926,-4.3933,0,0,0,0,0,0,0,0,0,0,0,0,0,-4.3438,-4.3444,-4.3755,-4.3757,-4.3758,-4.3882,-4.3884,-4.3885,-4.3804,-4.3799,-4.3794,-4.379,-4.3917,-4.3925,-4.3933,0,0,0,0,0,0,0,0,0,0,0,0,0,-4.3571,-4.3446,-4.3755,-4.3732,-4.3732,-4.3881,-4.3884,-4.3886,-4.3805,-4.3799,-4.3793,-4.3788,-4.3914,-4.3924,-4.3934,-4.4112,0,0,-4.3966,-4.3971,0,0,0,0,0,0,0,0,-4.3564,-4.3583,-4.3734,-4.3734,-4.3734,-4.3821,-4.3818,-4.3962,-4.3806,-4.3777,-4.3792,-4.3785,-4.3891,-4.3903,-4.3939,-4.4118,-4.4124,-4.3967,-4.3973,-4.3978,-4.3981,0,0,0,0,0,0,0,-4.3555,-4.3577,-4.3805,-4.3736,-4.3736,-4.3715,-4.3728,-4.3845,-4.3864,-4.3779,-4.3773,-4.379,-4.3889,-4.3929,-4.3941,-4.4125,-4.3967,-4.3976,-4.3982,-4.3986,-4.4455,-4.4461,0,0,0,0,0,0,-4.3548,-4.357,-4.3801,-4.3809,-4.3633,-4.3725,-4.3739,-4.3799,-4.3863,-4.3867,-4.3794,-4.3785,-4.3914,-4.3929,-4.3945,-4.4158,-4.3978,-4.3987,-4.3993,-4.4449,-4.4457,-4.4464,0,0,0,0,0,0,-4.3541,-4.3569,-4.3796,-4.3688,-4.3715,-4.3737,-4.3804,-4.3804,-4.3844,-4.3874,-4.3877,-4.3832,-4.391,-4.3931,-4.4071,-4.4161,-4.3992,-4.4001,-4.4442,-4.4452,-4.446,-4.4584,0,0,0,0,0,0,-4.3533,-4.3568,-4.3636,-4.369,-4.3721,-4.3921,-4.3809,-4.3811,-4.3862,-4.3852,-4.391,-4.3914,-4.3907,-4.4056,-4.4082,-4.4172,-4.401,-4.4434,-4.4446,-4.4457,-4.4572,-4.4596,-4.4617,0,0,0,0,0,-4.3522,-4.3666,-4.364,-4.3669,-4.3808,-4.3927,-4.3944,-4.3935,-4.387,-4.3938,-4.3958,-4.3912,-4.4147,-4.4071,-4.4099,-4.4194,-4.4428,-4.4443,-4.4456,-4.4561,-4.4591,-4.4616,0,0,0,0,0,0,-4.3621,-4.3672,-4.3645,-4.3811,-4.3865,-4.3913,-4.3999,-4.3967,-4.404,-4.4027,-4.401,-4.4024,-4.4171,-4.4196,-4.4111,-4.4369,-4.4277,-4.4297,-4.4347,-4.4376,-4.4398,-4.4389,-4.4018,0,0,0,0,0,-4.3662,-4.3756,-4.3795,-4.3937,-4.3966,-4.3978,-4.4029,-4.4017,-4.4072,-4.4095,-4.4124,-4.4179,-4.4264,-4.4321,-4.4402,-4.4574,-4.4585,-4.4653,-4.4676,-4.4694,-4.4712,-4.4804,-4.4835,-4.451,-4.451,-4.4509,0,0,-4.3749,-4.3788,-4.3848,-4.3958,-4.3999,-4.4095,-4.3998,-4.4104,-4.4174,-4.411,-4.4245,-4.4269,-4.4328,-4.4485,-4.4556,-4.4511,-4.4804,-4.4712,-4.4726,-4.4735,-4.4822,-4.4853,-4.488,-4.4519,-4.4517,-4.4516,0,0,-4.3955,-4.3994,-4.4117,-4.416,-4.4223,-4.423,-4.4259,-4.4312,-4.4325,-4.446,-4.4414,-4.4497,-4.4645,-4.4689,-4.4731,-4.4953,-4.4913,-4.4979,-4.5098,-4.5188,-4.5213,-4.5236,-4.5315,-4.5343,-4.4997,-4.4997,-4.4997,0,-4.4054,-4.4197,-4.4184,-4.4294,-4.4343,-4.429,-4.4414,-4.4455,-4.4541,-4.4576,-4.4524,-4.4709,-4.4745,-4.4911,-4.4965,-4.5001,-4.5033,-4.4973,-4.5211,-4.5234,-4.5254,-4.5329,-4.5359,-4.5005,-4.5004,-4.5003,-4.5002,0,-4.4316,-4.4416,-4.4507,-4.4593,-4.4652,-4.4768,-4.4771,-4.4833,-4.4815,-4.4827,-4.4964,-4.5005,-4.5093,-4.5131,-4.5115,-4.5296,-4.5266,-4.5213,-4.5121,-4.5293,-4.5364,-4.5392,-4.5016,-4.5013,-4.5011,-4.5009,0,0,-4.459,-4.4665,-4.4699,-4.4737,-4.4802,-4.4878,-4.4991,-4.5077,-4.513,-4.5191,-4.5284,-4.541,-4.5362,-4.5409,-4.5397,-4.5476,-4.5648,-4.5413,-4.5414,-4.5455,-4.5849,-4.5889,-4.5923,-4.5622,-4.5627,-4.5631,-4.5844,0,-4.48,-4.4998,-4.4989,-4.5174,-4.5265,-4.5216,-4.5313,-4.5363,-4.5377,-4.5455,-4.547,-4.556,-4.5489,-4.5517,-4.5593,-4.5611,-4.5727,-4.5595,-4.5708,-4.5712,-4.5696,-4.5959,-4.6002,-4.6201,-4.5872,-4.5876,-4.588,0,-4.5072,-4.5143,-4.5337,-4.5388,-4.5426,-4.5514,-4.5592,-4.5668,-4.5723,-4.5727,-4.578,-4.5754,-4.5866,-4.577,-4.5925,-4.5835,-4.588,-4.5896,-4.5903,-4.5914,-4.5807,-4.5978,-4.6264,-4.6295,-4.5923,-4.5919,-4.5916,0,-4.5253,-4.5396,-4.5531,-4.5564,-4.5627,-4.569,-4.5718,-4.5767,-4.582,-4.5887,-4.5921,-4.6,-4.6044,-4.6105,-4.6101,-4.6032,-4.6257,-4.6161,-4.6264,-4.6264,-4.6314,-4.6311,-4.6613,-4.6343,-4.6342,-4.6341,-4.6341,0,-4.5489,-4.561,-4.5613,-4.5696,-4.5829,-4.5816,-4.5948,-4.597,-4.6014,-4.6099,-4.606,-4.614,-4.6129,-4.621,-4.6207,-4.6335,-4.6354,-4.636,-4.6358,-4.6365,-4.6364,-4.6394,-4.6381,-4.6349,-4.6348,-4.6346,-4.6345,0,-4.5714,-4.5721,-4.5865,-4.5911,-4.5926,-4.6022,-4.6062,-4.6139,-4.6149,-4.6257,-4.6282,-4.6297,-4.639,-4.6391,-4.6497,-4.6495,-4.6651,-4.6633,-4.6633,-4.663,-4.6732,-4.6723,-4.7065,-4.7109,-4.6809,-4.6812,-4.6815,0,-4.5865,-4.5957,-4.6014,-4.6069,-4.6102,-4.619,-4.6243,-4.6233,-4.629,-4.6358,-4.6428,-4.6517,-4.6588,-4.6738,-4.6757,-4.6838,-4.6821,-4.6935,-4.6833,-4.6836,-4.6823,-4.6818,-4.6827,-4.6956,-4.6959,-4.6962,-4.6964,0,-4.6133,-4.6131,-4.621,-4.629,-4.6355,-4.6418,-4.6475,-4.6522,-4.6518,-4.6583,-4.6678,-4.6733,-4.6841,-4.693,-4.7007,-4.7034,-4.6999,-4.6996,-4.7024,-4.7032,-4.7028,-4.7032,-4.6689,-4.6988,-4.6986,-4.6984,-4.6983,-4.6982,-4.6326,-4.6405,-4.6457,-4.6546,-4.6588,-4.6643,-4.6718,-4.6737,-4.6816,-4.6904,-4.6893,-4.6998,-4.7048,-4.7149,-4.7183,-4.7264,-4.7224,-4.7265,-4.7275,-4.7286,-4.7297,-4.7015,-4.7278,-4.7277,-4.7277,-4.7276,-4.7276,0,-4.6591,-4.6622,-4.6704,-4.6786,-4.6856,-4.6816,-4.6877,-4.6938,-4.7031,-4.7082,-4.7152,-4.726,-4.7346,-4.7372,-4.7454,-4.7514,-4.7499,-4.7536,-4.7532,-4.7538,-4.7328,-4.7296,-4.7546,-4.7546,-4.7546,-4.7546,-4.7546,-4.7546,-4.6738,-4.6869,-4.6874,-4.7026,-4.7055,-4.7159,-4.7197,-4.7247,-4.7287,-4.741,-4.7481,-4.7497,-4.7537,-4.7622,-4.7698,-4.7703,-4.7735,-4.7779,-4.7777,-4.758,-4.7553,-4.7527,-4.7497,-4.7786,-4.7786,-4.7981,-4.7983,-4.7984]}]]